SCP
0 0 0 0 0 0 0 0 0 0 0 0 0 0 0 0 0 0 0 0 0 0 0 1 1 2 2 1 1 0 0 0 0 0 0 0 0 0 0 0 0 0 0 0
0 0 0 0 0 0 0 0 0 0 0 0 0 0 0 0 0 0 0 0 0 0 0 0 1 1 1 1 0 0 0 0 0 0 0 0 0 0 0 0 0 0 0 0
0 0 0 0 0 0 0 0 1 1 1 1 1 1 1 0 0 0 0 0 0 0 0 0 0 0 0 0 0 0 0 0 0 0 0 0 0 0 0 0 0 0 0 0
0 0 0 0 0 0 0 1 1 1 1 1 1 1 1 0 0 0 0 0 0 0 0 0 0 0 0 0 0 0 0 0 0 0 0 0 0 0 0 0 0 0 0 0
0 0 0 0 0 1 1 0 0 1 1 1 1 1 1 0 0 0 0 0 0 0 0 0 0 0 0 0 0 0 0 0 0 0 0 0 0 0 0 0 0 0 0 0
0 0 0 0 0 1 1 0 0 0 1 1 1 1 1 0 0 0 0 0 0 0 1 1 0 0 0 0 0 0 0 0 0 0 0 0 0 0 0 0 0 0 0 0
0 0 0 0 1 1 1 0 0 0 0 0 0 0 0 0 0 0 0 0 0 0 1 1 1 0 0 0 0 0 0 0 0 0 0 0 0 0 0 0 0 0 0 0
0 0 0 0 1 1 1 0 0 0 0 0 0 0 0 0 0 0 0 0 0 0 1 1 1 0 0 1 0 0 0 0 0 0 0 0 0 0 0 0 0 0 0 0
0 0 0 0 1 1 0 0 0 0 0 0 0 0 0 0 0 0 0 0 0 0 0 0 0 0 0 1 0 0 0 0 0 0 0 0 0 0 0 0 0 0 0 0
0 0 0 0 0 0 0 0 0 0 0 0 0 0 0 0 0 0 0 0 0 0 0 0 0 0 0 0 0 0 0 0 0 0 0 0 0 0 0 0 0 0 0 0
0 1 1 0 0 0 0 0 0 0 0 0 0 0 0 0 0 0 0 0 0 0 0 0 0 0 0 0 0 0 0 0 0 0 0 0 0 0 0 0 0 0 0 0
0 1 1 0 0 0 0 0 0 0 0 0 0 0 0 0 0 0 0 0 0 0 0 0 0 0 0 0 0 0 0 0 0 0 0 0 0 0 0 0 0 0 0 0
0 0 0 0 0 0 0 0 0 0 0 0 0 0 0 0 0 0 0 0 0 0 0 0 0 0 0 0 0 0 0 0 0 0 0 0 0 0 0 0 0 0 0 0
0 0 0 0 0 0 0 0 0 0 0 0 0 0 0 0 0 0 0 0 0 0 0 0 0 0 0 0 0 0 0 0 0 0 0 0 0 0 0 0 0 0 0 0
0 0 0 0 0 0 0 0 0 0 0 0 0 0 0 0 0 0 0 0 0 0 0 0 0 0 0 0 0 0 0 0 0 0 0 0 0 0 0 0 0 0 0 0
0 0 0 0 0 0 0 0 0 0 0 0 0 0 0 0 0 0 0 0 0 0 0 0 0 0 0 0 0 0 0 0 0 0 0 0 0 0 0 0 0 0 0 0
0 0 0 0 0 0 0 0 0 0 0 0 0 0 0 0 0 0 0 0 0 0 0 0 0 0 0 0 0 0 0 0 0 0 0 0 0 0 0 0 0 0 0 0
0 0 0 0 0 0 0 0 0 0 0 0 0 0 0 0 0 0 0 0 0 0 0 0 0 0 0 0 0 0 0 0 0 0 0 0 0 0 0 0 0 0 0 0
0 0 0 0 0 0 0 0 0 0 0 0 0 0 0 0 0 0 0 0 0 0 0 0 0 0 0 0 0 0 0 0 0 0 0 0 0 0 0 0 0 0 0 0
0 0 0 0 0 0 0 0 0 0 0 0 0 0 0 0 0 0 0 0 0 0 0 0 0 0 0 0 0 0 0 0 0 0 0 0 0 0 0 0 0 0 0 0
0 0 0 0 0 0 0 0 0 0 0 0 0 0 0 0 0 0 0 0 0 0 0 0 0 0 0 0 0 0 0 0 0 0 0 0 0 0 0 0 0 0 0 0
0 0 0 0 0 0 0 0 0 0 0 0 0 0 0 0 0 0 0 0 0 0 0 0 0 0 0 0 0 0 0 0 0 0 0 0 0 0 0 0 0 0 0 0
0 0 0 0 0 0 0 0 0 0 0 0 0 0 0 0 0 0 0 0 0 0 0 0 0 0 0 0 0 0 0 0 0 0 0 0 0 0 0 0 0 0 0 0
0 0 0 0 0 0 0 0 0 0 0 0 0 0 0 0 0 0 0 0 0 0 0 0 0 0 0 0 0 0 0 0 0 0 0 0 0 0 0 0 0 0 0 0
0 0 0 0 0 0 0 0 0 0 0 0 0 0 0 0 0 0 0 0 0 0 0 0 0 0 0 0 0 0 0 0 0 0 0 0 0 0 0 0 0 0 0 0
0 0 0 0 0 0 0 0 0 0 0 0 0 0 0 0 0 0 0 0 0 0 0 0 0 0 0 0 0 0 0 0 0 0 0 0 0 0 0 0 0 0 0 0
0 0 0 0 0 0 0 0 0 0 0 0 0 0 0 0 0 0 0 0 0 0 0 0 0 0 0 0 0 0 0 0 0 0 0 0 0 0 0 0 0 0 0 0
Wind_Speed
6 5 3 2 3 1 1 3 4 5 4 6 7 6 6 5 5 6 8 10 12 12 11 11 11 11 11 11 10 10 10 10 10 9 8 8 7 7 7 7 8 7 7 7
3 3 2 2 2 1 3 4 3 4 4 6 4 2 2 1 2 4 7 9 11 12 12 13 14 13 12 12 11 10 11 11 10 9 8 8 8 8 7 7 7 6 7 7
4 4 3 2 1 5 8 6 5 4 4 6 8 8 5 3 3 2 4 5 7 9 11 12 13 13 14 14 11 10 11 10 9 10 10 10 9 8 8 8 7 7 7 7
1 3 1 4 1 8 12 8 6 4 5 5 5 5 7 8 5 3 1 2 4 5 6 7 8 9 10 9 9 11 10 9 9 10 10 9 9 9 9 7 6 6 7 7
3 2 2 1 1 2 6 4 2 3 5 6 5 9 10 12 8 6 5 3 0 3 3 4 5 6 7 7 7 8 9 10 10 10 10 9 9 9 8 6 7 7 6 7
3 3 4 4 1 1 8 1 3 2 3 4 5 5 4 8 9 11 10 9 8 7 7 5 3 1 3 5 6 8 10 10 9 9 9 9 10 9 7 7 8 7 7 7
3 3 5 3 2 2 3 7 6 4 3 4 4 4 1 4 7 9 11 11 10 10 10 8 7 4 2 1 3 6 5 4 5 6 7 7 6 5 5 6 7 7 8 8
3 2 5 2 1 2 5 2 4 3 4 7 7 6 3 5 7 9 10 11 11 10 9 9 9 7 6 4 4 3 1 0 2 3 3 4 5 5 5 6 7 7 7 8
5 5 3 2 3 2 1 2 3 3 5 8 8 6 6 6 7 8 8 8 7 8 9 9 9 8 7 6 5 5 4 3 2 2 2 2 3 4 4 5 6 7 7 8
2 1 0 0 1 1 2 3 5 7 8 8 8 7 7 7 6 7 7 6 6 8 8 8 8 8 6 5 6 6 6 5 4 4 4 4 3 3 4 5 6 7 7 8
3 2 3 2 2 4 7 8 10 10 9 8 9 7 6 5 5 5 5 5 5 6 6 6 6 6 6 6 5 6 5 5 4 4 4 5 5 5 6 7 8 9 9 8
7 8 6 4 2 6 10 9 8 10 10 8 8 7 6 4 4 4 5 5 5 5 5 5 6 6 6 5 5 5 5 5 4 4 4 5 6 8 10 12 15 16 17 14
8 8 7 7 6 8 9 8 8 9 8 7 5 5 4 3 3 4 5 5 5 4 4 4 5 5 5 5 5 5 4 5 4 4 5 6 6 7 10 11 13 15 16 17
12 12 10 7 7 8 10 9 9 8 7 6 5 5 5 4 4 4 4 3 3 3 3 3 3 4 5 4 4 5 5 6 5 4 5 5 6 7 7 9 9 9 10 12
9 10 10 8 8 8 8 8 9 7 6 5 5 5 5 4 3 2 2 2 2 3 3 3 3 4 5 3 4 4 4 4 5 5 5 6 6 7 7 9 9 8 7 7
10 10 10 10 9 8 8 8 7 5 4 4 4 3 2 1 1 2 3 2 2 3 4 3 4 5 4 3 3 3 4 9 9 6 5 6 6 7 8 8 8 8 7 6
11 8 8 8 7 7 6 5 5 3 3 2 1 0 1 1 2 3 4 4 3 4 5 4 5 5 3 2 2 3 4 6 11 7 5 6 6 7 8 9 8 8 7 8
9 7 7 7 6 5 5 4 4 3 2 0 1 1 1 2 3 5 6 5 5 5 6 5 4 3 3 3 3 3 4 4 5 5 5 6 7 7 7 8 9 9 8 7
7 7 6 5 5 5 4 3 2 1 0 1 2 3 4 4 5 6 5 5 5 6 7 5 5 3 3 4 5 3 4 5 5 5 5 7 7 7 7 8 8 8 8 6
6 6 6 6 5 4 2 1 1 1 3 3 3 4 5 6 6 6 5 4 5 5 4 3 2 3 3 5 8 4 4 5 5 5 6 6 7 7 8 8 8 8 7 6
7 6 6 5 3 2 1 1 2 4 5 5 4 5 6 7 6 4 3 4 5 3 2 3 2 2 4 5 7 4 4 5 5 5 6 6 7 7 7 8 8 7 7 6
4 4 4 3 3 3 3 4 4 5 6 6 6 6 5 5 5 3 2 2 2 2 2 2 2 5 7 7 4 5 5 5 5 5 6 6 7 7 8 8 8 7 6 7
2 2 2 3 3 4 5 5 6 5 6 6 6 6 4 3 1 0 1 2 1 3 3 2 5 9 10 5 4 5 5 6 6 6 7 7 7 7 7 8 7 7 7 6
2 3 4 4 4 4 5 6 6 4 5 5 4 3 1 1 2 1 1 2 4 4 3 4 8 10 9 5 5 5 5 6 6 6 7 7 7 7 7 7 7 7 7 8
4 4 4 5 4 4 4 4 4 5 4 3 4 4 3 2 2 1 2 4 6 6 4 6 9 9 6 5 5 6 6 6 7 7 7 8 8 8 8 8 8 7 7 7
3 3 3 2 2 2 2 2 2 3 2 2 3 3 3 3 4 4 4 5 7 7 4 4 5 6 5 5 6 6 6 7 8 8 8 8 9 9 8 8 10 8 7 7
4 3 3 3 3 3 3 2 3 3 3 1 1 2 3 4 5 5 5 4 4 4 4 4 4 4 5 5 6 6 6 7 7 8 8 8 8 8 8 10 8 7 7 7
Wind_Direction
219 230 209 235 271 303 132 198 195 250 237 245 235 216 215 215 198 179 179 179 181 182 183 185 185 188 189 191 190 185 182 189 197 198 196 197 201 207 209 210 214 214 216 222
289 277 279 281 298 27 39 20 35 30 352 318 323 38 62 89 140 167 178 182 183 183 184 189 192 193 194 197 195 186 189 198 197 191 194 199 204 206 208 213 217 215 218 221
272 300 33 300 277 103 82 46 62 60 320 338 17 34 25 25 74 137 167 172 180 186 191 196 198 195 198 201 193 190 197 200 195 192 197 204 206 205 209 213 215 217 222 221
213 26 260 257 335 111 99 66 57 60 14 20 38 38 33 22 36 37 63 148 184 195 198 201 197 197 199 190 187 193 199 201 198 195 202 204 202 207 212 210 210 217 223 225
124 143 262 287 342 136 111 61 10 62 35 34 17 35 23 9 21 37 43 42 214 203 204 205 209 203 185 186 189 193 200 202 200 198 201 202 207 213 210 205 213 215 216 221
118 139 222 236 296 158 107 110 260 125 77 46 44 53 345 348 19 32 34 34 32 31 35 25 317 222 173 195 194 211 215 211 204 198 199 204 212 215 210 207 216 218 224 222
146 182 250 263 322 31 152 217 209 189 145 105 103 139 201 7 33 40 41 38 38 42 40 22 11 46 68 349 253 244 236 215 206 206 210 214 218 218 216 218 222 224 230 233
144 161 243 280 38 193 221 194 167 155 123 111 112 115 96 60 48 42 41 37 37 40 35 25 26 43 43 7 312 332 12 253 232 224 224 227 226 232 228 225 230 235 236 245
176 202 224 203 189 239 167 142 150 130 112 116 113 103 83 62 50 44 43 37 33 38 34 25 25 38 35 357 2 24 30 11 340 312 284 263 240 244 247 236 236 242 239 245
126 257 219 151 93 59 99 103 99 101 104 103 99 88 73 59 47 39 33 33 32 38 35 22 16 28 25 16 31 38 28 10 355 343 327 316 294 267 256 251 250 250 245 247
129 157 94 37 59 103 98 90 88 86 88 93 91 79 72 59 43 35 29 22 32 38 31 16 13 19 19 23 34 34 19 1 346 333 317 306 295 278 268 256 249 249 251 244
185 183 151 161 161 119 107 102 99 93 81 73 82 80 68 52 33 30 24 21 25 25 23 14 18 16 9 15 32 31 9 349 334 326 317 307 302 301 283 272 271 261 254 249
139 135 124 126 117 112 111 110 101 95 93 82 69 70 65 47 31 35 32 27 25 21 19 19 22 10 355 359 16 16 351 330 322 321 318 313 309 304 304 301 289 279 268 259
113 109 98 102 108 106 103 99 92 84 78 75 64 55 53 46 36 32 20 9 19 20 14 11 10 346 327 343 0 350 334 321 317 306 304 305 305 302 298 297 299 296 287 272
95 103 116 111 97 93 94 90 83 74 68 59 57 58 60 54 32 357 330 340 12 8 347 339 333 313 307 327 344 334 324 311 307 303 302 302 304 305 303 300 294 290 290 287
104 99 99 96 93 91 89 90 89 84 79 69 62 62 65 58 360 327 322 329 338 310 292 293 290 286 294 313 328 321 311 315 319 309 306 309 310 311 310 304 298 292 287 282
107 101 99 97 95 91 93 100 107 102 87 79 86 130 46 22 348 322 307 295 280 271 269 273 276 282 293 301 311 302 301 308 317 316 307 306 310 311 310 306 301 296 290 281
112 122 123 121 117 104 94 89 90 90 91 25 360 338 308 282 276 276 278 286 298 297 288 279 271 280 295 301 305 297 297 298 302 302 304 307 308 307 308 307 305 301 296 293
106 106 104 104 108 107 102 95 96 99 319 304 301 282 269 263 262 267 276 292 296 287 283 283 296 312 314 314 325 302 305 309 311 308 306 310 312 308 308 308 308 306 302 296
82 82 84 81 79 86 89 92 67 310 290 284 285 284 283 277 271 276 286 283 270 263 274 305 330 340 329 321 333 318 318 319 318 317 315 314 313 312 313 314 316 318 319 323
66 64 64 63 54 44 26 334 299 290 287 286 275 266 264 270 278 286 294 293 296 311 354 14 14 348 333 332 335 332 331 329 327 324 323 321 318 319 320 320 321 326 331 334
59 53 45 32 12 335 308 296 287 286 288 286 280 274 277 287 298 311 310 278 293 25 49 26 9 353 352 351 343 340 340 339 336 331 327 324 320 319 320 323 324 327 329 329
36 14 346 321 300 288 295 298 295 293 287 283 284 284 279 281 280 188 318 326 17 65 61 30 11 9 8 2 350 347 345 345 341 335 330 326 322 321 321 323 325 327 328 327
324 307 294 290 297 305 302 299 303 302 303 306 310 310 312 38 39 50 117 64 63 67 59 29 22 16 12 2 353 351 347 344 340 334 329 326 323 323 323 323 322 322 323 325
305 304 306 316 318 305 296 311 330 338 346 347 353 8 25 77 104 89 68 59 57 61 46 24 22 19 14 1 357 352 346 343 341 334 328 326 325 324 322 322 323 321 321 321
334 329 329 337 335 329 339 352 345 331 334 349 1 12 34 55 72 78 68 61 56 54 43 23 19 20 12 2 355 350 346 341 338 335 330 328 327 328 326 327 326 325 324 324
1 4 2 359 349 351 351 349 336 323 321 349 22 30 56 69 76 74 69 60 52 44 36 30 25 15 5 357 354 350 345 342 339 337 335 334 333 332 331 330 328 327 328 328